Regional Weather Roundup
Issued by NWS Cleveland, OH

Home | Current Version | Previous Version | Graphics & Text | Print | Product List | Glossary On
Versions: 1 2 3 4 5 6 7 8 9 10 11 12 13 14 15 16 17 18 19 20 21 22 23 24 25 26 27 28 29 30 31 32 33 34 35 36 37 38 39 40 41 42 43 44 45 46 47 48 49 50
000
ASUS41 KCLE 270400
RWRCLE
OHIO REGIONAL WEATHER ROUNDUP
NATIONAL WEATHER SERVICE WILMINGTON, OH
1200 AM EDT FRI APR 27 2018

NOTE: "FAIR" INDICATES FEW OR NO CLOUDS BELOW 12,000 FEET WITH NO
SIGNIFICANT WEATHER AND/OR OBSTRUCTIONS TO VISIBILITY.

OHZ001>008-015>018-024>027-034-035-043-044-270500-
   NORTHWEST OHIO

CITY           SKY/WX    TMP DP  RH WIND       PRES   REMARKS
DEFIANCE       FAIR      47  37  68 CALM      29.84F
FINDLAY        FAIR      50  40  68 E5        29.83F
TOLEDO EXPRESS FAIR      47  41  80 CALM      29.84F
TOLEDO EXEC    FAIR      47  38  71 SE5       29.85F
LIMA           FAIR      49  41  74 E6        29.83F
$$

OHZ009>014-019>023-028>033-038-089-270500-
   NORTHEAST OHIO

CITY           SKY/WX    TMP DP  RH WIND       PRES   REMARKS
CLE-HOPKINS    FAIR      44  35  70 SE8       29.88F
CLE-LAKEFRONT  FAIR      48  35  60 S10       29.84F
CUY CO. ARPT   NOT AVBL
LORAIN-ELYRIA  FAIR      45  32  60 S3        29.86F
ASHTABULA      FAIR      40  35  83 CALM      29.87F
AKRON-CANTON   MOCLDY    48  37  65 NE6       29.85F
WOOSTER        NOT AVBL
MANSFIELD      FAIR      49  38  65 CALM      29.85F
YOUNGSTOWN     CLOUDY    46  36  68 NE3       29.86F
$$

OHZ042-051>053-060>062-070>072-077>081-270500-
  SOUTHWEST OHIO

CITY           SKY/WX    TMP DP  RH WIND       PRES   REMARKS
CINC-COVINGTON FAIR      56  33  42 NW7       29.83F
CINC-LUNKEN    FAIR      49  45  86 CALM      29.84S
HAMILTON       FAIR      47  42  83 CALM      29.84F
DAYTON         NOT AVBL
WRIGHT-PAT AFB CLEAR     50  43  77 CALM      29.83F
DAYTON GENERAL FAIR      53  39  59 CALM      29.82F
WILMINGTON     FAIR      53  46  77 CALM      29.83F
$$

OHZ036-037-039>041-045>050-054>059-063>069-073>076-082>088-270500-
  CENTRAL AND SOUTHEAST OHIO

CITY           SKY/WX    TMP DP  RH WIND       PRES   REMARKS
COLUMBUS       CLOUDY    58  42  55 E6        29.83F
OSU AIRPORT    CLOUDY    54  42  64 E5        29.83F
BOLTON FIELD   FAIR      54  44  70 NE3       29.84S
RICKENBACK AFB NOT AVBL
NEWARK         MOCLDY    52  47  83 CALM      29.83F
MARION         FAIR      46  39  76 E5        29.85F
LANCASTER      FAIR      56  44  64 SE5       29.83F
ZANESVILLE     FAIR      52  43  71 CALM      29.83F
NEW PHILLY     FAIR      50  40  68 CALM      29.85F
$$




USA.gov is the U.S. government's official web portal to all federal, state and local government web resources and services.